Retour au catalogue

FENGYUN 1C DEB

LostSSO
NORAD 36223·DEBRIS·🇨🇳 China

Lancé May 10, 1999 depuis Taiyuan Satellite Launch Center

Loading…

Prochains Passages (prochaines 24 heures)

TLE

PériméSource: Space-Track

Époque: Jan 3, 2025, 01:05 UTC

1 36223U 99025DUY 25003.04532672  .00059271  00000-0  12767-1 0  9998
2 36223  98.3330 300.0384 0062376 164.1654 196.1514 14.56911944 30883

Suivez FENGYUN 1C DEB en temps réel avec AllMySat

Download on the App Store